Location: Azenweiler
(47.8027°N, 9.4096°E)
Time: 02:47:38
(UTC+00:00)

Cosmos 1626 Rocket - Pass Details

Date: 15 March 2026
Orbit: 596 x 624 km, 82.5° (Epoch: 13 April)

Event Time Altitude Azimuth Distance (km) Brightness Sun altitude
Rises 04:45:30 0° 343° (NNW) 2,900 6.9 -9.3°
Reaches altitude 10° 04:47:52 10° 335° (NNW) 1,985 6.0 -8.9°
Maximum altitude 04:51:52 36° 269° (W) 981 4.1 -8.2°
Drops below altitude 10° 04:55:49 10° 203° (SSW) 1,953 5.9 -7.5°
Sets 04:58:08 0° 195° (SSW) 2,846 6.8 -7.2°
